Location: *
(50.8160°S, 176.0219°W)
Time: 02:35:07
(UTC+00:00)

CBERS-1 - Pass Details

Date: 19 May 2026
Orbit: 764 x 772 km, 98.8° (Epoch: 8 June)

Event Time Altitude Azimuth Distance (km) Brightness Sun altitude
Rises 17:42:17 0° 355° (N) 3,243 7.4 -15.0°
Reaches altitude 10° 17:44:43 10° 347° (NNW) 2,326 6.5 -14.7°
Maximum altitude 17:49:32 40° 278° (W) 1,143 4.5 -13.9°
Drops below altitude 10° 17:54:26 10° 208° (SSW) 2,358 6.1 -13.2°
Enters shadow 17:56:18 - 202° (SSW) 3,056 6.8 -12.9°
